[[{"header":{"parameterUnit":"m.s-1","parameterCategory":2,"la1":30.2992,"la2":30.254,"lo1":-89.0895,"lo2":-89.0443,"dy":0.0025,"dx":0.0025,"nx":19,"ny":19,"refTime":"2026-03-21T21:00:00:Z","depth":"0","parameterNumber":2,"parameterNumberName":"U-component_of_CURRENTS"},"data":[0,0,0,0.0957,0.0961,0.1102,0.1102,0.1191,0.1192,0,0,0,0,0,0,0,0,0,0,0,0.0869,0.0869,0.0957,0.0961,0.1102,0.1102,0.1191,0.1192,0,0,0,0,0,0,0,0,0,0,0,0.0868,0.0869,0.087,0.0962,0.1102,0.1102,0.119,0.1101,0,0,0,0,0,0,0,0,0,0,0.0973,0.0951,0.0869,0.087,0.0963,0.1102,0.1102,0.1097,0.1106,0.1108,0,0.1122,0,0.1187,0.1198,0.1198,0,0,0,0.0937,0.0943,0.0956,0.087,0.0965,0.1102,0.1032,0.1103,0.1113,0.112,0.1124,0.113,0.1188,0.1198,0.1199,0.1332,0.1333,0,0,0.0929,0.0921,0.0949,0.0962,0.099,0.1027,0.1036,0.111,0.1129,0.1125,0.1133,0.119,0.1199,0.12,0.1331,0.1332,0,0,0,0.0923,0.0916,0.0928,0.0956,0.1005,0.1032,0.1042,0.1126,0.1122,0.1135,0.1191,0.1199,0.12,0.1331,0.1332,0.146,0,0,0,0.0917,0.0914,0.0924,0.0925,0.1004,0.1093,0.1056,0.1115,0.1128,0.119,0.1199,0.1201,0.133,0.1331,0.1455,0.1496,0,0,0,0.0864,0.0912,0.0917,0.0924,0.0998,0.1093,0.1095,0.1119,0.1163,0.1198,0.1202,0.1329,0.1331,0.145,0.1488,0.1652,0,0,0,0.0864,0.0923,0.0916,0.1015,0.0997,0.1103,0.1095,0.1178,0.1211,0.12,0.133,0.1332,0.1449,0.1483,0.1646,0.1759,0.1799,0,0,0.0943,0.0933,0.0993,0.0993,0.1098,0.1082,0.1222,0.1254,0.1239,0.1292,0.1297,0.1457,0.1487,0.1651,0.1866,0.1903,0,0,0,0.1024,0.1053,0.1088,0.1152,0.1201,0.1265,0.1299,0.1335,0.1406,0.1275,0.1458,0.1473,0.1574,0.1627,0.1657,0.1715,0.134,0.134,0.134,0.1093,0.1128,0.1219,0.1261,0.1318,0.1397,0.147,0.1517,0.1485,0.1542,0.158,0.1789,0.1846,0.187,0.1928,0.159,0.159,0.1591,0.1591,0.1202,0.1259,0.1294,0.1387,0.1428,0.1517,0.1638,0.166,0.1815,0.1714,0.1808,0.176,0.1911,0.196,0.1599,0.1598,0.1597,0.1596,0.1595,0.1236,0.1267,0.1319,0.1424,0.1522,0.1599,0.1757,0.1838,0.192,0.2012,0.2112,0.211,0.2157,0.2085,0.2086,0.2087,0.2087,0.2088,0.2089,0.1243,0.1299,0.1369,0.1474,0.1534,0.1656,0.1841,0.1973,0.2197,0.2261,0.2263,0.2246,0.194,0.1924,0.2103,0.21,0.2099,0.2097,0.2096,0.1309,0.1314,0.1412,0.1475,0.1627,0.1744,0.1914,0.2233,0.242,0.2568,0.2644,0.2422,0.2404,0.2378,0.2373,0.2658,0.2658,0.2658,0.2658,0.1328,0.1348,0.1453,0.1548,0.1674,0.1795,0.2025,0.2293,0.2678,0.2867,0.2908,0.281,0.2785,0.278,0.2746,0.2743,0.3116,0.3117,0.3117,0.1372,0.1392,0.1461,0.1552,0.1687,0.1834,0.2004,0.2229,0.2817,0.3135,0.2978,0.2959,0.2803,0.2758,0.2725,0.2673,0.2656,0,0]},{"header":{"parameterUnit":"m.s-1","parameterCategory":2,"la1":30.2992,"la2":30.254,"lo1":-89.0895,"lo2":-89.0443,"dy":0.0025,"dx":0.0025,"nx":19,"ny":19,"refTime":"2026-03-21T21:00:00:Z","depth":"0","parameterNumber":3,"parameterNumberName":"V-component_of_CURRENTS"},"data":[0,0,0,0.0492,0.0491,0.0451,0.045,0.0402,0.0402,0,0,0,0,0,0,0,0,0,0,0,0.0484,0.0483,0.0492,0.0491,0.0451,0.045,0.0403,0.0402,0,0,0,0,0,0,0,0,0,0,0,0.0484,0.0484,0.0483,0.0491,0.0451,0.045,0.0403,0.043,0,0,0,0,0,0,0,0,0,0,0.0468,0.0495,0.0484,0.0483,0.0491,0.0451,0.045,0.0432,0.0429,0.0425,0,0.0405,0,0.0415,0.04,0.04,0,0,0,0.0483,0.0497,0.046,0.0483,0.0491,0.0451,0.0467,0.043,0.0427,0.0421,0.0404,0.0403,0.0415,0.04,0.0399,0.0416,0.0416,0,0,0.0485,0.0506,0.0462,0.0457,0.0463,0.0468,0.0466,0.0428,0.0433,0.0404,0.0402,0.0414,0.0399,0.0399,0.0415,0.0416,0,0,0,0.0497,0.0507,0.0471,0.0459,0.0458,0.0467,0.0464,0.0434,0.0414,0.0402,0.0413,0.0399,0.0399,0.0415,0.0415,0.0541,0,0,0,0.0498,0.0515,0.0472,0.0488,0.0458,0.0455,0.0472,0.0416,0.0413,0.0413,0.0399,0.0398,0.0414,0.0415,0.0536,0.0616,0,0,0,0.0489,0.0516,0.0498,0.0488,0.0474,0.0455,0.0434,0.0415,0.042,0.04,0.0398,0.0414,0.0415,0.0532,0.0608,0.0718,0,0,0,0.0528,0.0527,0.0499,0.0519,0.0474,0.0481,0.0434,0.0436,0.0423,0.0399,0.0414,0.0415,0.0531,0.0603,0.0712,0.0822,0.0858,0,0,0.0553,0.0531,0.0546,0.052,0.0549,0.0487,0.0539,0.0492,0.0438,0.0424,0.0424,0.0538,0.0608,0.0717,0.0883,0.0917,0,0,0,0.0574,0.0583,0.0588,0.0598,0.058,0.0601,0.0549,0.054,0.0528,0.0436,0.0524,0.0564,0.0629,0.0682,0.0709,0.0599,0.042,0.042,0.042,0.0645,0.064,0.0679,0.0673,0.068,0.0676,0.0698,0.0672,0.0596,0.0611,0.0655,0.081,0.0866,0.0888,0.0772,0.0628,0.0628,0.0629,0.0629,0.0718,0.0748,0.0754,0.0786,0.0791,0.0821,0.0842,0.0817,0.0871,0.0764,0.0821,0.0797,0.0926,0.0791,0.0637,0.0635,0.0634,0.0634,0.0633,0.0774,0.0788,0.0804,0.0851,0.0911,0.0923,0.1038,0.1032,0.1004,0.1059,0.1111,0.1109,0.1004,0.1085,0.1085,0.1086,0.1087,0.1088,0.1088,0.0823,0.084,0.0881,0.0927,0.0964,0.1056,0.1158,0.1231,0.1311,0.128,0.1281,0.1051,0.095,0.0947,0.1101,0.1099,0.1097,0.1096,0.1095,0.0893,0.0889,0.0952,0.0988,0.1093,0.1237,0.1326,0.1534,0.1598,0.1669,0.1402,0.1398,0.1379,0.1356,0.1362,0.1615,0.1615,0.1615,0.1615,0.0935,0.094,0.1026,0.1095,0.1204,0.1329,0.1599,0.1777,0.1753,0.1687,0.1551,0.1434,0.1418,0.1391,0.1367,0.1368,0.1616,0.1616,0.1615,0.0986,0.1007,0.1072,0.1133,0.1254,0.1447,0.1722,0.1966,0.1849,0.1596,0.138,0.1381,0.1178,0.1162,0.1084,0.1059,0.1047,0,0]}],[{"header":{"parameterUnit":"m.s-1","parameterCategory":2,"la1":30.2992,"la2":30.254,"lo1":-89.0895,"lo2":-89.0443,"dy":0.0025,"dx":0.0025,"nx":19,"ny":19,"refTime":"2026-03-21T21:00:00:Z","depth":"2","parameterNumber":2,"parameterNumberName":"U-component_of_CURRENTS"},"data":[0,0,0,-0.0526,-0.0524,-0.0421,-0.0421,-0.0285,-0.0283,0,0,0,0,0,0,0,0,0,0,0,-0.0561,-0.056,-0.0526,-0.0524,-0.0422,-0.0421,-0.0285,-0.0283,0,0,0,0,0,0,0,0,0,0,0,-0.0561,-0.056,-0.056,-0.0523,-0.0422,-0.0421,-0.0285,-0.0362,0,0,0,0,0,0,0,0,0,0,-0.0461,-0.0499,-0.0561,-0.056,-0.0523,-0.0422,-0.0421,-0.0365,-0.0357,-0.0332,0,-0.0319,0,-0.0301,-0.0275,-0.0274,0,0,0,-0.0515,-0.0506,-0.0478,-0.056,-0.0522,-0.0422,-0.0465,-0.0361,-0.0351,-0.032,-0.0317,-0.0312,-0.0298,-0.0274,-0.0273,-0.0112,-0.0111,0,0,-0.0521,-0.054,-0.0484,-0.0472,-0.0498,-0.0469,-0.0462,-0.0355,-0.0347,-0.0316,-0.0308,-0.0296,-0.0273,-0.0272,-0.0112,-0.0111,0,0,0,-0.0543,-0.0544,-0.0518,-0.0478,-0.0461,-0.0466,-0.0458,-0.0351,-0.0342,-0.0307,-0.0294,-0.0272,-0.0271,-0.0113,-0.0112,-0.0078,0,0,0,-0.0546,-0.0557,-0.0521,-0.0531,-0.0463,-0.0406,-0.0458,-0.035,-0.0337,-0.0295,-0.0272,-0.027,-0.0114,-0.0113,-0.0081,-0.006,0,0,0,-0.0565,-0.0559,-0.0549,-0.0532,-0.0492,-0.0407,-0.0392,-0.0347,-0.033,-0.0274,-0.0269,-0.0115,-0.0113,-0.0084,-0.0064,0.0021,0,0,0,-0.0586,-0.0555,-0.0549,-0.0506,-0.0493,-0.0404,-0.0392,-0.0318,-0.0267,-0.0272,-0.0114,-0.0112,-0.0085,-0.0067,0.0018,0.004,0.0058,0,0,-0.0556,-0.0552,-0.0525,-0.0516,-0.0433,-0.0418,-0.0317,-0.025,-0.0229,-0.015,-0.0146,-0.008,-0.0064,0.0021,0.0152,0.0167,0,0,0,-0.0521,-0.0495,-0.0472,-0.0421,-0.037,-0.0301,-0.024,-0.0209,-0.0123,-0.0192,-0.005,-0.004,0.0012,0.0019,0.0031,-0.0103,-0.0103,-0.0103,-0.0103,-0.0502,-0.0463,-0.0401,-0.034,-0.0286,-0.0202,-0.0146,-0.0085,-0.0074,-0.0027,0.0009,0.0127,0.0135,0.0144,0.0031,0.0031,0.0032,0.0032,0.0032,-0.0445,-0.041,-0.0347,-0.0274,-0.0206,-0.0123,-0.003,-0.0006,0.0106,0.0073,0.0123,0.0081,0.0159,0.0035,0.0035,0.0034,0.0034,0.0033,0.0033,-0.0438,-0.0415,-0.0363,-0.0266,-0.0168,-0.0083,0.0022,0.0089,0.0151,0.0202,0.0258,0.0257,0.0152,0.0253,0.0254,0.0254,0.0255,0.0255,0.0256,-0.0469,-0.0411,-0.0364,-0.0263,-0.0204,-0.0106,0.006,0.0141,0.0276,0.0318,0.0318,0.0203,0.0196,0.0168,0.0263,0.0262,0.0261,0.026,0.0259,-0.0475,-0.0466,-0.0392,-0.0339,-0.0207,-0.0109,0.0038,0.0255,0.0368,0.0436,0.039,0.0385,0.0386,0.0376,0.0354,0.0492,0.0492,0.0492,0.0492,-0.0511,-0.0493,-0.0408,-0.0332,-0.0237,-0.0108,0.0102,0.031,0.0458,0.0513,0.0512,0.0443,0.0434,0.0433,0.0421,0.0397,0.0548,0.0548,0.0548,-0.0534,-0.0499,-0.0448,-0.0353,-0.024,-0.0102,0.0129,0.0416,0.0572,0.0547,0.0491,0.0502,0.0393,0.0381,0.037,0.0355,0.0313,0,0]},{"header":{"parameterUnit":"m.s-1","parameterCategory":2,"la1":30.2992,"la2":30.254,"lo1":-89.0895,"lo2":-89.0443,"dy":0.0025,"dx":0.0025,"nx":19,"ny":19,"refTime":"2026-03-21T21:00:00:Z","depth":"2","parameterNumber":3,"parameterNumberName":"V-component_of_CURRENTS"},"data":[0,0,0,-0.0431,-0.0428,-0.0261,-0.026,-0.0072,-0.0071,0,0,0,0,0,0,0,0,0,0,0,-0.0476,-0.0475,-0.0431,-0.0428,-0.0261,-0.026,-0.0073,-0.0071,0,0,0,0,0,0,0,0,0,0,0,-0.0476,-0.0475,-0.0473,-0.0427,-0.0261,-0.026,-0.0073,-0.0188,0,0,0,0,0,0,0,0,0,0,-0.0346,-0.0386,-0.0475,-0.0473,-0.0427,-0.0261,-0.026,-0.0194,-0.0181,-0.0161,0,-0.0131,0,-0.011,-0.006,-0.006,0,0,0,-0.0411,-0.0396,-0.0359,-0.0473,-0.0425,-0.0261,-0.0331,-0.0186,-0.0173,-0.0145,-0.0128,-0.0121,-0.0106,-0.0059,-0.0059,0.0059,0.006,0,0,-0.042,-0.0436,-0.0369,-0.0351,-0.0376,-0.0337,-0.0326,-0.0177,-0.0157,-0.0127,-0.0117,-0.0103,-0.0058,-0.0057,0.0059,0.0059,0,0,0,-0.0458,-0.0443,-0.0408,-0.0358,-0.0333,-0.0332,-0.032,-0.0163,-0.0153,-0.0115,-0.0101,-0.0058,-0.0056,0.0059,0.0059,0.0034,0,0,0,-0.0463,-0.0466,-0.0413,-0.0419,-0.0336,-0.0242,-0.0309,-0.0163,-0.0146,-0.0102,-0.0057,-0.0054,0.0059,0.0059,0.0034,0.0029,0,0,0,-0.0484,-0.0469,-0.045,-0.0421,-0.0358,-0.0244,-0.0224,-0.0158,-0.0139,-0.006,-0.0054,0.0059,0.0059,0.0035,0.0029,-0.0015,0,0,0,-0.0507,-0.0471,-0.0449,-0.0395,-0.036,-0.0264,-0.0225,-0.0133,-0.0065,-0.0057,0.0059,0.0059,0.0035,0.003,-0.0014,-0.0098,-0.011,0,0,-0.0481,-0.0468,-0.0436,-0.0414,-0.0324,-0.0286,-0.0199,-0.0094,-0.0058,0.0011,0.0015,0.0034,0.0029,-0.0015,-0.008,-0.0093,0,0,0,-0.0441,-0.0409,-0.0379,-0.0316,-0.0257,-0.0194,-0.0107,-0.009,-0.002,-0.0019,0.0048,0.0046,0.0018,-0.003,-0.0039,0.0061,0.0061,0.0061,0.0061,-0.0408,-0.0373,-0.0305,-0.0247,-0.0192,-0.0118,-0.0087,-0.0048,-0.0006,0.0006,0.0035,0.0,-0.005,-0.0058,0.0044,0.0044,0.0044,0.0044,0.0043,-0.0345,-0.0299,-0.0252,-0.0175,-0.0127,-0.0056,-0.0036,-0.0026,-0.0023,0.0015,-0.0012,-0.0041,-0.0071,0.0042,0.0042,0.0042,0.0042,0.0043,0.0043,-0.0312,-0.0288,-0.0234,-0.0138,-0.0069,-0.0018,-0.0013,-0.0006,-0.003,-0.005,-0.0108,-0.0108,-0.0035,-0.006,-0.006,-0.006,-0.006,-0.0061,-0.0061,-0.0301,-0.0252,-0.0188,-0.01,-0.0056,-0.0012,0.0004,-0.0033,-0.0106,-0.0138,-0.0139,-0.0035,-0.0032,-0.0041,-0.0064,-0.0063,-0.0063,-0.0063,-0.0062,-0.0248,-0.024,-0.016,-0.0112,-0.0043,-0.0048,-0.0039,-0.0135,-0.0184,-0.0257,-0.021,-0.0205,-0.0211,-0.0203,-0.0216,-0.0283,-0.0283,-0.0284,-0.0284,-0.0233,-0.0217,-0.0134,-0.0093,-0.0081,-0.0073,-0.0121,-0.0162,-0.0251,-0.0297,-0.0295,-0.0277,-0.0269,-0.0275,-0.0266,-0.0279,-0.0362,-0.0362,-0.0362,-0.0197,-0.0184,-0.0133,-0.01,-0.01,-0.0128,-0.0135,-0.0085,-0.0211,-0.0357,-0.0224,-0.0305,-0.0276,-0.0265,-0.0269,-0.0256,-0.0275,0,0]}],[{"header":{"parameterUnit":"m.s-1","parameterCategory":2,"la1":30.2992,"la2":30.254,"lo1":-89.0895,"lo2":-89.0443,"dy":0.0025,"dx":0.0025,"nx":19,"ny":19,"refTime":"2026-03-21T21:00:00:Z","depth":"4","parameterNumber":2,"parameterNumberName":"U-component_of_CURRENTS"},"data":[0,0,0,0.0002,0.0002,-0.0007,-0.0007,-0.0022,-0.0022,0,0,0,0,0,0,0,0,0,0,0,-0.0004,-0.0004,0.0002,0.0002,-0.0007,-0.0007,-0.0022,-0.0022,0,0,0,0,0,0,0,0,0,0,0,-0.0004,-0.0004,-0.0005,0.0002,-0.0007,-0.0007,-0.0022,-0.0014,0,0,0,0,0,0,0,0,0,0,-0.0005,-0.0007,-0.0004,-0.0005,0.0002,-0.0007,-0.0007,-0.0014,-0.0015,-0.0018,0,-0.0027,0,-0.0021,-0.0023,-0.0023,0,0,0,0.0001,-0.0007,-0.0011,-0.0005,0.0002,-0.0007,-0.0003,-0.0014,-0.0015,-0.0019,-0.0027,-0.0028,-0.0021,-0.0023,-0.0023,-0.0033,-0.0033,0,0,0.0002,-0.0002,-0.001,-0.0011,-0.0011,-0.0003,-0.0004,-0.0015,-0.0019,-0.0027,-0.0028,-0.0021,-0.0023,-0.0023,-0.0033,-0.0033,0,0,0,0.0004,-0.0002,-0.0006,-0.0011,-0.001,-0.0003,-0.0004,-0.0019,-0.0021,-0.0028,-0.0022,-0.0023,-0.0023,-0.0033,-0.0033,-0.0013,0,0,0,0.0004,-0.0001,-0.0006,-0.0008,-0.001,-0.0013,-0.0008,-0.002,-0.0021,-0.0022,-0.0023,-0.0023,-0.0033,-0.0033,-0.0013,-0.0008,0,0,0,-0.0002,-0.0001,-0.0006,-0.0008,-0.0011,-0.0013,-0.0015,-0.002,-0.0017,-0.0023,-0.0023,-0.0033,-0.0033,-0.0014,-0.0009,0.0007,0,0,0,-0.0,-0.001,-0.0006,-0.0014,-0.0011,-0.0012,-0.0015,-0.0018,-0.0022,-0.0023,-0.0033,-0.0033,-0.0014,-0.0009,0.0006,0.0026,0,0,0,-0.0009,-0.0011,-0.0015,-0.0011,-0.0011,-0.001,-0.0005,-0.0014,-0.0023,-0.0029,-0.003,-0.0013,-0.0009,0.0007,0.0025,0,0,0,0,-0.0015,-0.0016,-0.0017,-0.0016,-0.0016,-0.0007,-0.0011,-0.0013,-0.0017,-0.0026,-0.0019,-0.0017,-0.0007,0.0001,-0.0033,-0.0033,-0.0033,-0.0033,-0.0033,-0.0026,-0.0021,-0.0019,-0.0011,-0.0011,-0.0005,-0.0001,-0.0004,-0.0012,-0.0012,-0.0004,0.0015,0.0024,-0.0008,-0.0008,-0.0007,-0.0007,-0.0007,-0.0007,-0.0025,-0.002,-0.001,-0.0004,0.0005,0.001,0.0012,0.0011,0.0018,0.0005,0.0013,0.0017,-0.0005,-0.0006,-0.0006,-0.0006,-0.0006,-0.0007,-0.0007,-0.0023,-0.0019,-0.0011,0.0003,0.0014,0.002,0.0031,0.0031,0.0033,0.0042,0.0055,0.0028,0.0031,0.0051,0.0051,0.0051,0.0051,0.0051,0.0051,-0.0025,-0.0016,-0.0007,0.0008,0.0013,0.0024,0.004,0.0055,0.0065,0.0077,0.005,0.0034,0.0032,0.0034,0.0052,0.0052,0.0052,0.0052,0.0052,-0.0027,-0.0024,-0.0012,-0.0006,0.0009,0.0018,0.0035,0.0088,0.0108,0.0132,0.0096,0.0094,0.0089,0.0086,0.0089,0.0125,0.0125,0.0125,0,-0.0034,-0.0029,-0.0017,-0.001,0.0002,0.0012,0.0055,0.0088,0.0114,0.0105,0.0092,0.0048,0.0047,0.0036,0.0034,0.0036,0,0,0,-0.0038,-0.0033,-0.0026,-0.0013,-0.0002,0.004,0.0067,0.009,0.0102,0.0159,0.0134,0.0132,0.0091,0.0057,0.0043,0.0041,0.0043,0,0]},{"header":{"parameterUnit":"m.s-1","parameterCategory":2,"la1":30.2992,"la2":30.254,"lo1":-89.0895,"lo2":-89.0443,"dy":0.0025,"dx":0.0025,"nx":19,"ny":19,"refTime":"2026-03-21T21:00:00:Z","depth":"4","parameterNumber":3,"parameterNumberName":"V-component_of_CURRENTS"},"data":[0,0,0,-0.0422,-0.0423,-0.046,-0.046,-0.052,-0.052,0,0,0,0,0,0,0,0,0,0,0,-0.0419,-0.0419,-0.0422,-0.0423,-0.0459,-0.046,-0.052,-0.052,0,0,0,0,0,0,0,0,0,0,0,-0.0419,-0.0419,-0.042,-0.0423,-0.0459,-0.046,-0.0519,-0.0491,0,0,0,0,0,0,0,0,0,0,-0.0454,-0.0451,-0.0419,-0.042,-0.0423,-0.0459,-0.046,-0.0489,-0.0493,-0.0504,0,-0.0512,0,-0.051,-0.0524,-0.0524,0,0,0,-0.0432,-0.0448,-0.045,-0.042,-0.0423,-0.0459,-0.0445,-0.0491,-0.0495,-0.0508,-0.0513,-0.0514,-0.0511,-0.0524,-0.0524,-0.0596,-0.0597,0,0,-0.043,-0.0433,-0.0448,-0.0453,-0.0436,-0.0444,-0.0446,-0.0493,-0.0503,-0.0513,-0.0516,-0.0512,-0.0524,-0.0525,-0.0596,-0.0596,0,0,0,-0.0418,-0.0432,-0.0433,-0.0451,-0.0452,-0.0445,-0.0448,-0.0501,-0.05,-0.0516,-0.0513,-0.0525,-0.0525,-0.0595,-0.0596,-0.0618,0,0,0,-0.0417,-0.0424,-0.0433,-0.0436,-0.0451,-0.0476,-0.0455,-0.0497,-0.0502,-0.0512,-0.0525,-0.0526,-0.0595,-0.0596,-0.0617,-0.0611,0,0,0,-0.0417,-0.0424,-0.0428,-0.0436,-0.0446,-0.0475,-0.0477,-0.0498,-0.0499,-0.0524,-0.0526,-0.0595,-0.0596,-0.0615,-0.0609,-0.0598,0,0,0,-0.042,-0.0427,-0.0428,-0.0441,-0.0445,-0.0475,-0.0476,-0.0503,-0.0525,-0.0525,-0.0595,-0.0596,-0.0615,-0.0608,-0.0597,-0.0495,0,0,0,-0.0426,-0.0428,-0.0435,-0.0436,-0.0466,-0.047,-0.0516,-0.0541,-0.0544,-0.0581,-0.0583,-0.0617,-0.0609,-0.0598,-0.0552,0,0,0,0,-0.0435,-0.0446,-0.0455,-0.0475,-0.0491,-0.0522,-0.0548,-0.0562,-0.0598,-0.056,-0.063,-0.0624,-0.0616,-0.0556,-0.0601,-0.06,-0.06,-0.06,-0.06,-0.0462,-0.0468,-0.0492,-0.0511,-0.0532,-0.0568,-0.0592,-0.0619,-0.0626,-0.0646,-0.0653,-0.0672,-0.0613,-0.0673,-0.0673,-0.0673,-0.0673,-0.0673,-0.0673,-0.0485,-0.0499,-0.0522,-0.0547,-0.0577,-0.0617,-0.0648,-0.0658,-0.0685,-0.0688,-0.0679,-0.0598,-0.0676,-0.0675,-0.0675,-0.0675,-0.0674,-0.0674,-0.0674,-0.0506,-0.051,-0.0533,-0.0568,-0.0607,-0.0639,-0.0645,-0.0675,-0.0693,-0.0696,-0.0615,-0.0677,-0.0661,-0.0691,-0.0691,-0.0691,-0.0691,-0.0691,-0.0691,-0.0511,-0.0529,-0.0549,-0.0583,-0.0602,-0.062,-0.0639,-0.0632,-0.0654,-0.0618,-0.0695,-0.0677,-0.0677,-0.0662,-0.069,-0.069,-0.069,-0.069,-0.069,-0.0516,-0.0524,-0.0543,-0.0561,-0.0587,-0.0586,-0.0601,-0.0552,-0.0538,-0.0516,-0.057,-0.0576,-0.0549,-0.0551,-0.053,-0.052,-0.0519,-0.0518,0,-0.0514,-0.052,-0.0535,-0.0545,-0.0547,-0.0562,-0.0492,-0.0479,-0.0494,-0.0489,-0.0574,-0.064,-0.0642,-0.0617,-0.0616,-0.0595,0,0,0,-0.0509,-0.0513,-0.0516,-0.053,-0.0531,-0.0483,-0.0472,-0.0442,-0.049,-0.0424,-0.0487,-0.0495,-0.06,-0.0687,-0.066,-0.0659,-0.0633,0,0]}]]